Погода в Коронель-Овьедо

Парагвай     25°27′58″S   56°27′10″W
темп.,
°C
ветер,
м/с
пор.,
м/с
влажн.,
%
обл.,
%
осадки,
мм/ч
давл.,
гПа
погр.,
м
20 января, ср
ср2000:00+23юв269715 0.1 1010240
03:00+23ююв269539 0.1 1010268
06:00+23ююв259399 0.0 1010341
09:00+23ю2391100 0.0 1012328
12:00+26ю2383100 0.0 1011552
15:00+29ююв237083 0.3 1009971
18:00+28ююв35830 0.9 1008793
21:00+23юв23950 1.6 101081
21 января, чт
чт2100:00+23вюв259950 0.1 1011167
03:00+22в279852 0.1 1010279
06:00+22в139963 0.0 1011130
09:00+25св249262 0.0 1013386
12:00+28св118098 0.6 1011630
15:00+32сз006783 0.7 10101083
18:00+29юв128422 1.4 1009601
21:00+24в239457 2.8 101196
22 января, пт
пт2200:00+23в229754 0.0 101259
03:00+22в239827 0.0 101185
06:00+22всв25993 0.1 1012177
09:00+25св258828 1.0 1014444
12:00+30ссв356952 2.6 10131081
15:00+30ссв236670 4.0 10111144
18:00+30ссв137593 1.6 10101013
21:00+24всв239383 5.6 101162
23 января, сб
сб2300:00+23св269514 0.0 1013166
03:00+22ссв289716 0.0 1011271
06:00+22ссв269767 1.1 1012191
09:00+25ссв259079 1.5 1013378
12:00+30ссв246893 0.1 10121102
15:00+29ссв247397 0.9 1009973
18:00+28ссв2589100 1.8 1008335
21:00+24всв259094 1.8 1009131
24 января, вс
вс2400:00+24св2289100 0.0 101160
03:00+23св2390100 0.0 100998
06:00+22св259495 0.0 1010153
09:00+25ссв148697 0.0 1011312
12:00+30ссв246594 0.1 10091185
15:00+29сз138386 6.1 1008379
18:00+24юз4893100 3.3 1007384
21:00+23в2397100 3.6 1008114